Regional Weather Roundup
Issued by NWS Charleston, WV

Home | Current Version | Previous Version | Text Only | Print | Product List | Glossary Off
Versions: 1 2 3 4 5 6 7 8 9 10 11 12 13 14 15 16 17 18 19 20 21 22 23 24 25 26 27 28 29 30 31 32 33 34 35 36 37 38 39 40 41 42 43 44 45 46 47 48 49 50

000
ASUS41 KRLX 040710
RWRRLX
West Virginia Regional Weather Roundup
National Weather Service Charleston WV
300 AM EDT MON MAY 04 2015

Note: "fair" indicates few or no clouds below 12,000 feet with no
significant weather and/or obstructions to visibility.

WVZ003-040800-
Northern Panhandle of West Virginia

CITY           SKY/WX    TMP DP  RH WIND       PRES   REMARKS
WHEELING       CLEAR     61  37  41 S3        30.14R
$$

WVZ009-040800-
Northwest West Virginia

CITY           SKY/WX    TMP DP  RH WIND       PRES   REMARKS
PARKERSBURG    CLEAR     51  44  77 CALM      30.16R
$$

WVZ006-040800-
Western West Virginia

CITY           SKY/WX    TMP DP  RH WIND       PRES   REMARKS
HUNTINGTON     CLEAR     52  46  80 CALM      30.13R
$$

WVZ015-040800-
West Central West Virginia

CITY           SKY/WX    TMP DP  RH WIND       PRES   REMARKS
CHARLESTON     CLEAR     50  43  77 CALM      30.14S
$$

WVZ022-031-040800-
North Central West Virginia

CITY           SKY/WX    TMP DP  RH WIND       PRES   REMARKS
CLARKSBURG     CLEAR     49  43  80 CALM      30.16S
MORGANTOWN     CLEAR     52  39  61 CALM      30.17S
$$

WVZ025-035-042-045-040800-
Southern West Virginia

CITY           SKY/WX    TMP DP  RH WIND       PRES   REMARKS
BECKLEY        CLEAR     57  42  57 S5        30.21S
LOGAN            N/A     59  39  47 CALM      30.14R
BLUEFIELD      CLEAR     63  43  48 SW6       30.23F
LEWISBURG      CLEAR     49  40  71 NE3       30.22S
$$

WVZ047-040800-
Northern Mountains of West Virginia

CITY           SKY/WX    TMP DP  RH WIND       PRES   REMARKS
ELKINS         CLEAR     42  39  89 CALM      30.22S
$$

WVZ052-040800-
Eastern Panhandle of West Virginia

CITY           SKY/WX    TMP DP  RH WIND       PRES   REMARKS
MARTINSBURG    CLEAR     53  45  74 SW3       30.17R
PETERSBURG     CLEAR     46  42  86 CALM      30.20S
$$


USA.gov is the U.S. government's official web portal to all federal, state and local government web resources and services.